Lid_Strength_Index
12 11 11 12 12 11 13 13 15 14 13 11 11 9 8 8 9 9 9 9 9 10 11 10 9 8 7 7 6 6 7 7 6 5 5 5 5 5 5 5 5 4 4 4
14 11 11 13 11 11 11 11 12 12 13 9 9 8 9 9 8 8 9 9 10 10 10 9 8 8 7 7 7 7 7 6 5 5 5 5 4 4 4 4 5 4 4 5
16 12 12 15 12 11 11 10 11 13 11 9 9 8 8 8 9 9 9 9 10 9 8 9 8 7 8 8 7 6 6 5 4 5 5 5 5 5 5 5 5 4 5 5
16 14 19 13 8 9 10 10 9 9 9 8 8 8 8 9 10 10 10 9 9 9 8 8 8 8 7 6 6 5 4 5 5 5 5 5 6 6 6 5 6 5 4 4
17 18 14 12 10 11 12 12 9 9 8 7 7 8 9 9 8 9 9 8 8 8 8 8 7 7 7 6 5 4 5 5 5 5 5 6 6 6 6 7 7 6 4 3
14 18 19 13 9 7 8 15 8 8 8 8 9 12 11 8 8 8 8 8 8 8 8 8 8 7 7 7 6 6 5 5 5 4 6 6 6 6 7 7 6 5 5 6
15 16 14 9 8 7 15 13 8 7 8 9 10 10 10 8 8 8 8 8 8 8 9 8 7 6 5 5 6 5 4 5 4 5 6 7 7 7 7 6 7 7 6 6
14 16 18 7 8 13 10 9 8 8 9 10 10 9 8 8 9 9 9 9 8 8 7 5 5 5 5 5 4 4 5 4 5 5 6 6 7 6 6 8 7 7 7 7
12 13 9 8 9 8 8 8 8 9 9 9 9 9 9 8 9 9 9 9 8 7 6 5 5 4 4 4 4 5 4 5 5 6 6 6 5 7 7 7 8 8 8 8
12 10 9 8 8 8 8 8 9 9 9 9 10 8 8 8 10 10 9 8 8 7 6 6 4 3 4 4 5 5 5 6 6 6 6 5 6 7 7 8 9 9 9 9
11 10 9 8 8 8 7 8 8 9 9 9 9 8 8 10 9 9 9 8 8 7 7 6 5 4 4 4 5 5 5 5 5 5 6 6 6 7 8 8 9 9 9 8
12 8 9 9 8 8 8 9 9 9 9 8 8 9 10 9 9 9 9 8 7 7 7 6 5 4 4 5 5 6 5 6 7 7 7 7 7 7 8 9 9 9 10 9
8 7 8 8 8 7 8 8 8 9 8 9 8 9 9 9 8 7 7 7 8 8 8 7 6 5 4 4 6 7 7 7 7 7 7 8 8 8 9 8 8 9 10 10
7 7 9 8 9 8 8 8 8 8 7 7 9 9 9 9 7 7 7 8 8 7 7 7 7 7 6 6 6 6 7 7 7 7 7 7 7 8 8 8 8 8 8 9
7 7 7 8 8 8 8 9 9 8 8 9 9 9 8 7 7 6 7 8 8 7 7 6 6 6 5 5 6 6 6 6 6 6 6 7 7 7 7 7 7 7 7 7
8 8 8 8 9 9 9 10 9 8 9 10 9 7 8 7 7 6 8 8 8 8 6 6 6 5 5 5 5 5 5 7 7 6 6 7 6 7 7 7 8 8 8 9
9 9 9 9 9 10 10 9 8 8 9 10 7 7 7 7 7 8 8 8 7 7 6 6 6 5 4 5 5 5 5 5 8 6 6 6 7 7 7 8 8 8 8 10
6 7 8 9 9 10 9 8 8 9 10 8 7 7 6 7 8 8 7 7 7 7 6 6 6 5 5 5 5 5 6 6 5 6 6 6 7 7 7 7 7 8 8 8
6 7 8 9 9 9 8 8 8 9 8 6 6 6 7 7 7 7 8 8 8 7 7 7 7 6 6 7 7 6 6 6 6 6 6 7 7 6 7 7 7 7 8 8
7 8 8 8 7 7 8 8 9 9 7 5 6 7 8 8 7 8 8 8 8 8 8 6 6 5 5 7 9 7 7 7 7 7 7 7 7 6 6 8 7 7 7 7
8 8 8 8 7 7 7 8 9 8 6 6 7 7 8 7 7 8 9 9 8 8 7 8 7 6 6 9 8 7 7 8 8 8 7 7 7 7 7 7 7 7 7 7
8 8 8 9 8 8 8 9 8 7 5 5 6 7 8 9 8 8 8 9 8 11 9 8 8 10 10 12 7 7 8 8 8 8 8 8 7 7 7 7 7 8 8 9
8 8 8 8 8 8 8 8 7 6 5 6 6 8 9 9 10 9 9 7 8 10 9 9 12 13 12 8 9 8 8 8 9 8 8 8 8 8 8 8 8 8 8 9
8 8 9 8 8 8 9 8 6 5 4 5 6 7 9 10 10 9 9 10 11 11 9 10 11 12 12 9 9 9 9 9 9 9 9 11 8 8 8 9 9 9 9 10
8 8 9 8 8 8 8 8 6 4 4 6 7 7 9 9 9 9 9 8 11 11 9 13 13 12 9 9 9 9 9 9 9 9 9 8 9 9 9 9 9 9 10 10
8 9 9 8 8 8 8 8 6 5 5 6 6 6 6 8 8 8 8 9 8 11 10 10 9 9 9 9 9 9 9 10 9 9 9 10 10 10 10 10 10 10 11 11
9 10 9 8 8 7 8 8 6 5 5 6 6 6 6 6 7 8 10 8 9 9 9 9 9 10 9 9 9 9 9 9 10 9 10 10 10 10 10 10 11 11 11 11